71P/Clark (2023)

Japanese version
Home page
Updated on November 4, 2020

---------------------------------------------------------------------

* Profile

* Orbital Elements

Epoch 2023 Jan. 16.0 TT = JDT 2459960.5
T 2023 Jan. 21.68501 TT                                 MPCW
q   1.5887244            (2000.0)            P               Q
n   0.17743187     Peri.  209.08313     -0.03224746     +0.98946501
a   3.1365217      Node    59.39352     -0.88237859     +0.03813853
e   0.4934757      Incl.    9.43799     -0.46943384     -0.13965834
P   5.55
From 1062 observations 2011 Feb. 3-2017 Oct. 29, mean residual 0".8.
     Nongravitational parameters A1 = +0.61, A2 = -1.5781, A3 = +0.0376.

* Finding Charts

* Magnitudes Graph

        m1 = 7.2 + 5 log d + 20.0 log r(t - 30)

---------------------------------------------------------------------

The orbital elements are published on M.P.E.C. 2017-V13.
The charts are made with StellaNavigator Ver.10 (AstroArts).
The magnitudes graphs are made with Comet for Windows.

---------------------------------------------------------------------

Copyright(C) Seiichi Yoshida (comet@aerith.net). All rights reserved.